Flag for Mexico

Past Weather in 19°14'47"N, 99°06'04"W, Mexico — Yesterday and Last 2 Weeks

Now
70 °F

Passing clouds.


Feels Like: 70 °F
Forecast: 73 / 51 °F
Wind: 16 mph from Northeast

Location: Mexico City / Licenci
Current Time: Oct 23, 2020 at 8:26:16 pm
Latest Report: Oct 23, 2020 at 7:40 pm
Visibility: 12 mi
Pressure30.32 "Hg
Humidity: 18%
Dew Point: 25 °F
Location of 19°14'47"N, 99°06'04"WLocation

Past Weather in 19°14'47"N, 99°06'04"W — Graph

°F

19°14'47"N, 99°06'04"W Temperature Yesterday

Maximum temperature yesterday: 77 °F (at 3:48 pm)
Minimum temperature yesterday: 50 °F (at 7:49 am)
Average temperature yesterday: 63 °F

High & Low Weather Summary for the Past Weeks

 TemperatureHumidityPressure
High81 °F (Oct 11, 2:39 pm)94% (Oct 13, 6:48 am)30.46 "Hg (Oct 13, 6:48 am)
Low46 °F (Oct 23, 6:50 am)13% (Oct 22, 2:49 pm)29.64 "Hg (Oct 11, 3:47 pm)
Average65 °F56%30.18 "Hg
* Reported Oct 8 6:45 pm — Oct 23 6:47 pm, 19°14'47"N, 99°06'04"W. Weather by CustomWeather, © 2020

Note: Actual official high and low records may vary slightly from our data, if they occured in-between our weather recording intervals... More about our weather records

19°14'47"N, 99°06'04"W Weather History for the Previous 24 Hours

Scroll right to see more
 ConditionsComfort  
Time TempWeatherWind HumidityBarometerVisibility
6:47 pm
Fri, Oct 23
73 °FPassing clouds.18 mph17%29.85 "Hg8 mi
5:45 pm75 °FPassing clouds.14 mph16%30.27 "Hg8 mi
4:41 pm77 °FSunny.14 mph15%30.26 "Hg8 mi
3:44 pm77 °FSunny.14 mph14%29.75 "Hg8 mi
2:43 pm77 °FSunny.18 mph15%30.28 "Hg8 mi
1:42 pm75 °FSunny.9 mph19%30.32 "Hg10 mi
1:40 pm75 °FSunny.8 mph19%30.32 "Hg10 mi
12:40 pm72 °FSunny.12 mph22%29.84 "Hg10 mi
11:48 am70 °FSunny.2 mph25%30.39 "Hg8 mi
11:14 am68 °FSunny.No wind33%30.40 "Hg6 mi
10:49 am64 °FSunny.3 mph37%30.40 "Hg6 mi
10:07 am63 °FSunny.No wind42%30.40 "Hg6 mi
9:21 am57 °FSunny.5 mph55%30.39 "Hg7 mi
8:44 am54 °FSunny.3 mph58%30.37 "Hg8 mi
7:46 am50 °FSunny.5 mph62%30.34 "Hg10 mi
6:50 am46 °FClear.5 mph71%29.89 "Hg10 mi
6:24 am48 °FClear.7 mph62%30.32 "Hg10 mi
5:47 am52 °FClear.No wind62%30.32 "Hg10 mi
4:42 am52 °FClear.No wind62%30.31 "Hg10 mi
3:45 am55 °FClear.No wind55%29.81 "Hg10 mi
2:45 am55 °FClear.7 mph55%30.33 "Hg10 mi
2:41 am57 °FClear.6 mph51%30.33 "Hg10 mi
1:44 am61 °FClear.5 mph34%30.34 "Hg10 mi
12:44 am63 °FClear.5 mph32%29.82 "Hg10 mi
11:45 pm
Thu, Oct 22
64 °FClear.5 mph30%30.35 "Hg10 mi
10:42 pm66 °FClear.3 mph35%30.35 "Hg10 mi
9:44 pm66 °FClear.9 mph30%29.87 "Hg10 mi
8:42 pm70 °FClear.9 mph25%30.29 "Hg10 mi
Weather by CustomWeather, © 2020

See weather overview